Hourly Weather Aljaraque

Today, 26 November, Thursday

Time Temperature Precipitation Wind Pressure Humidity
00:00 +13°C° 0 mm 6 mps 753 mmHg 88%
01:00 +13°C° 0.7 mm 6 mps 753 mmHg 87%
02:00 +12°C° 0.7 mm 5 mps 752 mmHg 86%
03:00 +12°C° 0.7 mm 5 mps 752 mmHg 85%
04:00 +12°C° 0.8 mm 5 mps 752 mmHg 85%
05:00 +12°C° 0.8 mm 5 mps 751 mmHg 86%
06:00 +12°C° 0 mm 4 mps 751 mmHg 87%
07:00 +12°C° 0.8 mm 4 mps 751 mmHg 85%
08:00 +13°C° 0.8 mm 4 mps 752 mmHg 82%
09:00 +13°C° 0.8 mm 4 mps 752 mmHg 80%
10:00 +14°C° 0.5 mm 5 mps 752 mmHg 77%
11:00 +14°C° 0.5 mm 5 mps 752 mmHg 73%
12:00 +15°C° 0.5 mm 5 mps 752 mmHg 70%
13:00 +14°C° 0.8 mm 6 mps 752 mmHg 72%
14:00 +14°C° 0.8 mm 6 mps 752 mmHg 75%
15:00 +14°C° 0.8 mm 6 mps 752 mmHg 77%
16:00 +13°C° 1.1 mm 6 mps 752 mmHg 79%
17:00 +13°C° 1.1 mm 6 mps 752 mmHg 82%
18:00 +11°C° 1.1 mm 6 mps 752 mmHg 84%
19:00 +11°C° 0.4 mm 6 mps 752 mmHg 85%
20:00 +10°C° 0.4 mm 5 mps 752 mmHg 87%
21:00 +10°C° 0.4 mm 5 mps 753 mmHg 88%
22:00 +10°C° 0.2 mm 5 mps 753 mmHg 89%
23:00 +9°C° 0.2 mm 5 mps 753 mmHg 90%

Tomorrow, 27 November, Friday

Time Temperature Precipitation Wind Pressure Humidity
00:00 +9°C° 0.2 mm 5 mps 753 mmHg 91%
01:00 +9°C° 0.2 mm 5 mps 753 mmHg 90%
02:00 +9°C° 0.2 mm 5 mps 752 mmHg 89%
03:00 +9°C° 0.2 mm 6 mps 752 mmHg 88%
04:00 +9°C° 0 mm 5 mps 752 mmHg 88%
05:00 +8°C° 0 mm 4 mps 752 mmHg 89%
06:00 +9°C° 0 mm 3 mps 752 mmHg 90%
07:00 +10°C° 0 mm 3 mps 752 mmHg 87%
08:00 +10°C° 0 mm 3 mps 752 mmHg 85%
09:00 +11°C° 0 mm 3 mps 752 mmHg 82%
10:00 +13°C° 0 mm 2 mps 752 mmHg 79%
11:00 +13°C° 0 mm 2 mps 752 mmHg 76%
12:00 +14°C° 0 mm 2 mps 752 mmHg 73%
13:00 +13°C° 0 mm 3 mps 752 mmHg 73%
14:00 +14°C° 0 mm 3 mps 751 mmHg 74%
15:00 +14°C° 0 mm 3 mps 751 mmHg 75%
16:00 +13°C° 0 mm 3 mps 751 mmHg 79%
17:00 +12°C° 0 mm 3 mps 751 mmHg 83%
18:00 +11°C° 0 mm 3 mps 752 mmHg 87%
19:00 +11°C° 0 mm 3 mps 752 mmHg 88%
20:00 +11°C° 0 mm 3 mps 752 mmHg 90%
21:00 +11°C° 0 mm 3 mps 752 mmHg 91%
22:00 +10°C° 0 mm 3 mps 752 mmHg 91%
23:00 +10°C° 0 mm 3 mps 752 mmHg 91%

Day after tomorrow, 28 November, Saturday

Time Temperature Precipitation Wind Pressure Humidity
00:00 +10°C° 0 mm 3 mps 752 mmHg 92%
01:00 +10°C° 0 mm 3 mps 752 mmHg 92%
02:00 +9°C° 0 mm 2 mps 752 mmHg 92%
03:00 +9°C° 0 mm 2 mps 752 mmHg 93%
04:00 +9°C° 0 mm 2 mps 752 mmHg 93%
05:00 +9°C° 0 mm 2 mps 752 mmHg 93%
06:00 +9°C° 0 mm 2 mps 752 mmHg 93%
07:00 +10°C° 0 mm 1 mps 753 mmHg 91%
08:00 +11°C° 0 mm 1 mps 753 mmHg 89%
09:00 +12°C° 0 mm 1 mps 753 mmHg 87%
10:00 +13°C° 0 mm 1 mps 753 mmHg 82%
11:00 +14°C° 0 mm 1 mps 753 mmHg 77%
12:00 +16°C° 0 mm 1 mps 753 mmHg 72%
13:00 +16°C° 0 mm 2 mps 753 mmHg 72%
14:00 +16°C° 0 mm 2 mps 753 mmHg 71%
15:00 +17°C° 0 mm 3 mps 752 mmHg 71%
16:00 +16°C° 0.1 mm 3 mps 752 mmHg 76%
17:00 +14°C° 0.1 mm 4 mps 752 mmHg 82%
18:00 +13°C° 0.1 mm 4 mps 752 mmHg 88%
19:00 +13°C° 1 mm 4 mps 753 mmHg 89%
20:00 +14°C° 1 mm 5 mps 753 mmHg 90%
21:00 +14°C° 1 mm 5 mps 753 mmHg 91%
22:00 +13°C° 0.4 mm 4 mps 753 mmHg 92%
23:00 +13°C° 0.4 mm 4 mps 753 mmHg 92%

29 November, Sunday

Time Temperature Precipitation Wind Pressure Humidity
00:00 +12°C° 0.4 mm 3 mps 753 mmHg 93%
01:00 +13°C° 0.1 mm 2 mps 753 mmHg 92%
02:00 +13°C° 0.1 mm 2 mps 753 mmHg 90%
03:00 +13°C° 0.1 mm 1 mps 754 mmHg 89%
04:00 +13°C° 0.2 mm 1 mps 754 mmHg 88%
05:00 +13°C° 0.2 mm 2 mps 754 mmHg 87%
06:00 +13°C° 0.2 mm 2 mps 754 mmHg 87%
07:00 +13°C° 0.2 mm 2 mps 754 mmHg 85%
08:00 +14°C° 0.2 mm 2 mps 755 mmHg 83%
09:00 +15°C° 0.2 mm 2 mps 755 mmHg 81%
10:00 +16°C° 0.3 mm 3 mps 755 mmHg 76%
11:00 +17°C° 0.3 mm 4 mps 755 mmHg 71%
12:00 +17°C° 0.3 mm 5 mps 755 mmHg 66%
13:00 +16°C° 0.3 mm 5 mps 755 mmHg 67%
14:00 +16°C° 0.3 mm 5 mps 755 mmHg 68%
15:00 +16°C° 0.3 mm 5 mps 754 mmHg 70%
16:00 +15°C° 0.6 mm 5 mps 755 mmHg 75%
17:00 +15°C° 0.6 mm 5 mps 755 mmHg 80%
18:00 +14°C° 0.6 mm 5 mps 755 mmHg 85%
19:00 +14°C° 1.7 mm 5 mps 755 mmHg 86%
20:00 +13°C° 1.7 mm 6 mps 755 mmHg 87%
21:00 +12°C° 1.7 mm 7 mps 756 mmHg 88%
22:00 +12°C° 1.3 mm 7 mps 756 mmHg 89%
23:00 +13°C° 1.3 mm 6 mps 756 mmHg 89%

30 November, Monday

Time Temperature Precipitation Wind Pressure Humidity
00:00 +13°C° 1.3 mm 6 mps 756 mmHg 90%
01:00 +13°C° 0.6 mm 6 mps 756 mmHg 90%
02:00 +13°C° 0.6 mm 6 mps 756 mmHg 90%
03:00 +12°C° 0.6 mm 7 mps 756 mmHg 89%
04:00 +13°C° 0.5 mm 6 mps 756 mmHg 89%
05:00 +13°C° 0.5 mm 6 mps 756 mmHg 88%
06:00 +11°C° 0.5 mm 6 mps 756 mmHg 87%
07:00 +12°C° 0.4 mm 7 mps 756 mmHg 85%
08:00 +12°C° 0.4 mm 7 mps 756 mmHg 84%
09:00 +12°C° 0.4 mm 7 mps 756 mmHg 82%
10:00 +14°C° 0.1 mm 7 mps 756 mmHg 78%
11:00 +15°C° 0.1 mm 7 mps 756 mmHg 73%
12:00 +17°C° 0.1 mm 6 mps 756 mmHg 69%
13:00 +17°C° 0 mm 6 mps 756 mmHg 68%
14:00 +17°C° 0 mm 5 mps 756 mmHg 66%
15:00 +19°C° 0 mm 5 mps 756 mmHg 65%
16:00 +17°C° 0.1 mm 5 mps 756 mmHg 68%
17:00 +16°C° 0.1 mm 5 mps 756 mmHg 72%
18:00 +15°C° 0.1 mm 5 mps 756 mmHg 76%
19:00 +14°C° 0 mm 4 mps 756 mmHg 76%
20:00 +14°C° 0 mm 4 mps 757 mmHg 76%
21:00 +13°C° 0 mm 4 mps 757 mmHg 76%
22:00 +13°C° 0 mm 4 mps 757 mmHg 77%
23:00 +13°C° 0 mm 4 mps 757 mmHg 77%

1 December, Tuesday

Time Temperature Precipitation Wind Pressure Humidity
00:00 +13°C° 0 mm 4 mps 757 mmHg 78%
01:00 +13°C° 0 mm 4 mps 757 mmHg 77%
02:00 +13°C° 0 mm 4 mps 757 mmHg 76%
03:00 +13°C° 0 mm 4 mps 757 mmHg 76%
04:00 +13°C° 0 mm 4 mps 757 mmHg 76%
05:00 +12°C° 0 mm 4 mps 757 mmHg 76%
06:00 +12°C° 0 mm 4 mps 757 mmHg 76%
07:00 +13°C° 0 mm 4 mps 758 mmHg 75%
08:00 +13°C° 0 mm 4 mps 758 mmHg 74%
09:00 +14°C° 0 mm 4 mps 758 mmHg 72%
10:00 +15°C° 0 mm 4 mps 758 mmHg 68%
11:00 +17°C° 0 mm 4 mps 758 mmHg 64%
12:00 +18°C° 0 mm 4 mps 758 mmHg 61%
13:00 +18°C° 0 mm 4 mps 758 mmHg 61%
14:00 +19°C° 0 mm 4 mps 758 mmHg 60%
15:00 +19°C° 0 mm 3 mps 757 mmHg 60%
16:00 +17°C° 0 mm 3 mps 758 mmHg 65%
17:00 +16°C° 0 mm 3 mps 758 mmHg 70%
18:00 +14°C° 0 mm 3 mps 758 mmHg 75%
19:00 +14°C° 0 mm 3 mps 758 mmHg 75%
20:00 +13°C° 0 mm 3 mps 758 mmHg 75%
21:00 +14°C° 0 mm 2 mps 759 mmHg 75%
22:00 +14°C° 0 mm 2 mps 759 mmHg 74%
23:00 +14°C° 0 mm 2 mps 759 mmHg 73%
Show more